カタログに戻る

STARLINK-37696

運用中通信VLEO
NORAD 100274·PAYLOAD·🇺🇸 United States

打ち上げ Aug 11, 2026 から Cape Canaveral Space Force Station

Loading…

次のパス (今後24時間)

TLE

経年Source: Space-Track

元期: Sep 10, 2026, 15:42 UTC

1 A0274U 26183C   26253.65462807 -.01023796  00000-0 -76357-2 0  9999
2 A0274  53.1588 305.4513 0002358  49.2649 310.8576 15.74489756  4761

AllMySatでSTARLINK-37696をリアルタイム追跡

Download on the App Store